Today (as of 01:21)
66° Clear
Date Summary Temp Chance of Precip Humidity%
Sep. 26 01:00 Clear 66° 89%
Sep. 26 02:00 Clear 67° 86%
Sep. 26 03:00 Clear 67° 03% 84%
Sep. 26 04:00 Clear 67° 84%
Sep. 26 05:00 Clear 66° 85%
Sep. 26 06:00 Clear 65° 86%
Sep. 26 07:00 Clear 64° 03% 89%
Sep. 26 08:00 Clear 64° 01% 88%
Sep. 26 09:00 Clear 68° 02% 78%
Sep. 26 10:00 Clear 74° 02% 67%
Sep. 26 11:00 Clear 79° 02% 58%
Sep. 26 12:00 Clear 81° 02% 53%
Sep. 26 13:00 Clear 83° 01% 5%
Sep. 26 14:00 Clear 83° 01% 48%
Sep. 26 15:00 Clear 85° 01% 43%
Sep. 26 16:00 Clear 86° 01% 42%
Sep. 26 17:00 Clear 87° 01% 42%
Sep. 26 18:00 Clear 85° 44%
Sep. 26 19:00 Clear 83° 48%
Sep. 26 20:00 Clear 80° 01% 53%
Sep. 26 21:00 Clear 78° 57%
Sep. 26 22:00 Clear 76° 6%
Sep. 26 23:00 Clear 75° 64%
Sep. 27 00:00 Clear 73° 01% 66%

200